| time (UTC) | temp F | wind direction | speed knots | gust knots | rain 1hr in | rain 24hr in | rain mn in | humidity % | barometer mb |
| 20260507140601 | 56 | 117 | 1.7 | 4.3 | 0.00 | 0.26 | 0.22 | 100 | 1009.5 |
| 20260507135819 | 57 | 220 | 0.9 | 2.6 | 0.00 | 0.26 | 0.22 | 100 | 1009.4 |
| 20260507135103 | 57 | 223 | 0.9 | 2.6 | 0.00 | 0.26 | 0.22 | 100 | 1009.2 |
| 20260507134602 | 57 | 212 | 0.9 | 1.7 | 0.00 | 0.26 | 0.22 | 100 | 1009.1 |
| 20260507134102 | 56 | 197 | 0.9 | 0.9 | 0.00 | 0.26 | 0.22 | 100 | 1009.2 |
| 20260507133602 | 56 | 213 | 0.9 | 2.6 | 0.00 | 0.26 | 0.22 | 100 | 1009.2 |
| 20260507133323 | 56 | 109 | 1.7 | 2.6 | 0.00 | 0.26 | 0.22 | 100 | 1009.2 |
| 20260507132604 | 56 | 211 | 1.7 | 3.5 | 0.01 | 0.26 | 0.22 | 100 | 1009.1 |
| 20260507132104 | 56 | 36 | 1.7 | 3.5 | 0.01 | 0.26 | 0.22 | 100 | 1009.4 |
| 20260507131604 | 56 | 253 | 1.7 | 2.6 | 0.01 | 0.26 | 0.22 | 100 | 1009.4 |
| 20260507131102 | 56 | 206 | 1.7 | 2.6 | 0.01 | 0.26 | 0.22 | 100 | 1009.3 |
| 20260507130549 | 56 | 190 | 1.7 | 3.5 | 0.01 | 0.26 | 0.22 | 100 | 1009.2 |
| 20260507130532 | 56 | 215 | 0.9 | 3.5 | 0.02 | 0.26 | 0.22 | 100 | 1009.2 |
| 20260507125549 | 56 | 286 | 0.9 | 3.5 | 0.02 | 0.26 | 0.22 | 100 | 1009.1 |
| 20260507125047 | 56 | 207 | 1.7 | 2.6 | 0.02 | 0.26 | 0.22 | 100 | 1008.9 |
| 20260507124549 | 56 | 232 | 0.9 | 2.6 | 0.02 | 0.26 | 0.21 | 100 | 1008.8 |
| 20260507124050 | 56 | 42 | 1.7 | 3.5 | 0.02 | 0.26 | 0.21 | 100 | 1009.0 |
| 20260507123550 | 57 | 71 | 1.7 | 4.3 | 0.02 | 0.26 | 0.21 | 100 | 1009.2 |
| 20260507123048 | 57 | 218 | 1.7 | 4.3 | 0.03 | 0.26 | 0.21 | 100 | 1009.1 |
| 20260507122548 | 57 | 328 | 1.7 | 4.3 | 0.02 | 0.25 | 0.21 | 100 | 1009.2 |
| 20260507122048 | 57 | 201 | 1.7 | 4.3 | 0.03 | 0.25 | 0.21 | 100 | 1009.1 |
| 20260507121534 | 58 | 211 | 1.7 | 3.5 | 0.03 | 0.25 | 0.21 | 100 | 1008.9 |
| 20260507121254 | 58 | 201 | 1.7 | 3.5 | 0.04 | 0.25 | 0.20 | 100 | 1008.8 |
| 20260507120521 | 58 | 350 | 0.9 | 2.6 | 0.04 | 0.25 | 0.20 | 100 | 1008.8 |
| 20260507120021 | 58 | 209 | 0.9 | 2.6 | 0.04 | 0.24 | 0.20 | 100 | 1008.9 |
| 20260507115521 | 58 | 220 | 1.7 | 2.6 | 0.04 | 0.24 | 0.20 | 100 | 1008.8 |
| 20260507115021 | 58 | 191 | 1.7 | 3.5 | 0.05 | 0.24 | 0.20 | 100 | 1008.6 |
| 20260507114520 | 58 | 196 | 1.7 | 3.5 | 0.05 | 0.24 | 0.20 | 100 | 1008.6 |
| 20260507114243 | 58 | 202 | 0.9 | 1.7 | 0.05 | 0.24 | 0.20 | 100 | 1008.6 |
| 20260507113521 | 58 | 55 | 0.9 | 2.6 | 0.05 | 0.24 | 0.19 | 100 | 1008.7 |
| 20260507113020 | 59 | 9 | 0.9 | 2.6 | 0.05 | 0.23 | 0.19 | 100 | 1008.8 |
| 20260507112518 | 59 | 91 | 0.9 | 2.6 | 0.06 | 0.23 | 0.19 | 100 | 1008.9 |
| 20260507112246 | 59 | 178 | 1.7 | 2.6 | 0.06 | 0.22 | 0.18 | 100 | 1008.6 |
| 20260507111519 | 59 | 209 | 1.7 | 1.7 | 0.08 | 0.22 | 0.17 | 100 | 1008.4 |
| 20260507111005 | 59 | 20 | 1.7 | 2.6 | 0.08 | 0.21 | 0.17 | 100 | 1008.3 |
| 20260507110504 | 60 | 24 | 0.9 | 2.6 | 0.08 | 0.21 | 0.17 | 100 | 1008.4 |
| 20260507110006 | 60 | 0 | 0.9 | 2.6 | 0.07 | 0.20 | 0.16 | 100 | 1008.1 |
| 20260507105505 | 60 | 28 | 0.9 | 2.6 | 0.07 | 0.20 | 0.16 | 100 | 1008.2 |
| 20260507105006 | 60 | 351 | 0.9 | 2.6 | 0.07 | 0.19 | 0.15 | 100 | 1008.2 |
| 20260507104452 | 60 | 89 | 0.9 | 2.6 | 0.06 | 0.19 | 0.15 | 100 | 1008.1 |
| 20260507103950 | 60 | 310 | 0.9 | 2.6 | 0.07 | 0.19 | 0.15 | 100 | 1008.0 |
| 20260507103714 | 60 | 330 | 0.9 | 1.7 | 0.06 | 0.19 | 0.14 | 100 | 1007.9 |
| 20260507102950 | 61 | 99 | 0.9 | 2.6 | 0.06 | 0.18 | 0.13 | 100 | 1007.8 |
| 20260507102719 | 61 | 304 | 0.9 | 2.6 | 0.05 | 0.17 | 0.13 | 100 | 1007.8 |
| 20260507101950 | 62 | 344 | 0.9 | 2.6 | 0.04 | 0.16 | 0.11 | 100 | 1007.8 |
| 20260507101714 | 62 | 184 | 1.7 | 2.6 | 0.02 | 0.14 | 0.09 | 100 | 1007.9 |
| 20260507100950 | 62 | 2 | 1.7 | 3.5 | 0.01 | 0.13 | 0.08 | 100 | 1007.9 |
| 20260507100438 | 63 | 22 | 1.7 | 3.5 | 0.02 | 0.13 | 0.08 | 100 | 1007.7 |
| 20260507100143 | 64 | 248 | 1.7 | 3.5 | 0.02 | 0.13 | 0.08 | 100 | 1007.7 |
| 20260507095423 | 65 | 232 | 1.7 | 3.5 | 0.04 | 0.13 | 0.08 | 100 | 1007.6 |
| 20260507094923 | 66 | 352 | 1.7 | 2.6 | 0.05 | 0.13 | 0.08 | 100 | 1007.4 |
| 20260507094423 | 66 | 225 | 1.7 | 3.5 | 0.05 | 0.13 | 0.08 | 100 | 1007.3 |
| 20260507094143 | 66 | 252 | 1.7 | 3.5 | 0.04 | 0.12 | 0.08 | 100 | 1007.2 |
| 20260507093644 | 67 | 189 | 1.7 | 1.7 | 0.04 | 0.12 | 0.08 | 100 | 1007.2 |
| 20260507092920 | 67 | 213 | 1.7 | 1.7 | 0.04 | 0.12 | 0.08 | 100 | 1007.2 |
| 20260507092631 | 67 | 209 | 1.7 | 2.6 | 0.04 | 0.12 | 0.07 | 100 | 1007.2 |
| 20260507091908 | 67 | 225 | 0.9 | 2.6 | 0.04 | 0.12 | 0.07 | 100 | 1007.1 |
| 20260507091407 | 67 | 0 | 0.9 | 1.7 | 0.04 | 0.12 | 0.07 | 100 | 1007.0 |
| 20260507090853 | 67 | 210 | 0.9 | 2.6 | 0.03 | 0.11 | 0.07 | 100 | 1007.0 |
| 20260507090352 | 67 | 225 | 1.7 | 2.6 | 0.03 | 0.11 | 0.07 | 100 | 1006.9 |
| 20260507090118 | 67 | 215 | 0.9 | 2.6 | 0.02 | 0.10 | 0.06 | 100 | 1006.9 |
| 20260507085352 | 67 | 191 | 0.9 | 1.7 | 0.01 | 0.09 | 0.04 | 100 | 1006.6 |
| 20260507084852 | 67 | 187 | 0.9 | 1.7 | 0.00 | 0.08 | 0.04 | 100 | 1006.5 |
| 20260507084828 | 67 | 178 | 0.9 | 1.7 | 0.00 | 0.08 | 0.04 | 100 | 1006.7 |
| 20260507084109 | 67 | 0 | 1.7 | 1.7 | 0.00 | 0.08 | 0.04 | 100 | 1006.8 |
| 20260507083352 | 67 | 186 | 1.7 | 2.6 | 0.00 | 0.08 | 0.04 | 100 | 1006.7 |
| 20260507082853 | 67 | 190 | 1.7 | 2.6 | 0.00 | 0.08 | 0.04 | 100 | 1006.8 |
| 20260507082354 | 67 | 319 | 1.7 | 2.6 | 0.00 | 0.08 | 0.04 | 100 | 1006.7 |
| 20260507081839 | 67 | 287 | 1.7 | 2.6 | 0.00 | 0.08 | 0.04 | 100 | 1006.7 |
| 20260507081323 | 67 | 170 | 1.7 | 2.6 | 0.00 | 0.08 | 0.04 | 100 | 1006.8 |
| 20260507080823 | 67 | 194 | 1.7 | 2.6 | 0.00 | 0.08 | 0.04 | 100 | 1006.9 |
| 20260507080323 | 67 | 301 | 1.7 | 3.5 | 0.00 | 0.08 | 0.04 | 100 | 1006.7 |
| 20260507075824 | 67 | 319 | 1.7 | 3.5 | 0.00 | 0.08 | 0.04 | 100 | 1006.6 |
| 20260507075325 | 67 | 297 | 1.7 | 3.5 | 0.00 | 0.08 | 0.04 | 100 | 1006.4 |
| 20260507074823 | 67 | 180 | 1.7 | 3.5 | 0.00 | 0.08 | 0.04 | 100 | 1006.5 |
| 20260507074324 | 67 | 177 | 1.7 | 5.2 | 0.00 | 0.08 | 0.04 | 100 | 1006.5 |
| 20260507073823 | 67 | 161 | 2.6 | 5.2 | 0.00 | 0.08 | 0.04 | 100 | 1006.7 |
| 20260507073323 | 67 | 214 | 1.7 | 5.2 | 0.00 | 0.08 | 0.04 | 100 | 1006.8 |
| 20260507072821 | 67 | 205 | 1.7 | 2.6 | 0.00 | 0.08 | 0.04 | 100 | 1006.9 |
| 20260507072321 | 67 | 303 | 1.7 | 2.6 | 0.00 | 0.08 | 0.04 | 100 | 1006.9 |
| 20260507071822 | 67 | 181 | 1.7 | 2.6 | 0.00 | 0.08 | 0.04 | 100 | 1006.9 |
| 20260507071322 | 67 | 201 | 1.7 | 2.6 | 0.00 | 0.08 | 0.04 | 100 | 1007.0 |
| 20260507070822 | 67 | 320 | 1.7 | 2.6 | 0.00 | 0.08 | 0.04 | 100 | 1006.9 |
| 20260507070322 | 67 | 192 | 1.7 | 2.6 | 0.01 | 0.08 | 0.04 | 100 | 1006.8 |
| 20260507070042 | 67 | 194 | 1.7 | 3.5 | 0.02 | 0.08 | 0.04 | 100 | 1006.7 |
| 20260507065321 | 67 | 173 | 1.7 | 3.5 | 0.03 | 0.08 | 0.04 | 100 | 1006.8 |
| 20260507064822 | 67 | 213 | 1.7 | 3.5 | 0.04 | 0.08 | 0.04 | 100 | 1006.8 |
| 20260507064323 | 67 | 309 | 1.7 | 2.6 | 0.04 | 0.08 | 0.04 | 100 | 1006.7 |
| 20260507063823 | 67 | 163 | 1.7 | 5.2 | 0.04 | 0.08 | 0.04 | 100 | 1006.6 |
| 20260507063322 | 67 | 154 | 1.7 | 5.2 | 0.04 | 0.08 | 0.04 | 100 | 1006.6 |
| 20260507062822 | 67 | 183 | 1.7 | 2.6 | 0.04 | 0.08 | 0.04 | 100 | 1006.5 |
| 20260507062310 | 67 | 201 | 1.7 | 2.6 | 0.04 | 0.08 | 0.04 | 100 | 1006.6 |
| 20260507061810 | 67 | 170 | 1.7 | 2.6 | 0.04 | 0.08 | 0.04 | 100 | 1006.7 |
| 20260507061255 | 68 | 179 | 1.7 | 2.6 | 0.04 | 0.08 | 0.04 | 100 | 1006.8 |
| 20260507060755 | 68 | 309 | 1.7 | 3.5 | 0.03 | 0.07 | 0.03 | 100 | 1006.9 |
| 20260507060255 | 68 | 201 | 1.7 | 3.5 | 0.02 | 0.07 | 0.02 | 100 | 1007.1 |
| 20260507055755 | 68 | 184 | 1.7 | 3.5 | 0.01 | 0.06 | 0.01 | 99 | 1007.6 |
| 20260507055255 | 69 | 230 | 1.7 | 3.5 | 0.00 | 0.05 | 0.00 | 98 | 1007.6 |
| 20260507054755 | 69 | 168 | 1.7 | 3.5 | 0.00 | 0.04 | 0.00 | 97 | 1007.7 |
| 20260507054519 | 69 | 325 | 1.7 | 2.6 | 0.00 | 0.04 | 0.00 | 96 | 1007.8 |
| 20260507054242 | 69 | 231 | 1.7 | 2.6 | 0.00 | 0.04 | 0.00 | 95 | 1007.9 |
| 20260507053256 | 69 | 175 | 1.7 | 2.6 | 0.00 | 0.04 | 0.00 | 95 | 1007.9 |
| 20260507052756 | 69 | 323 | 1.7 | 3.5 | 0.00 | 0.04 | 0.00 | 94 | 1008.0 |
| 20260507052241 | 69 | 286 | 1.7 | 3.5 | 0.00 | 0.04 | 0.00 | 94 | 1008.1 |
| 20260507051740 | 69 | 257 | 1.7 | 4.3 | 0.00 | 0.04 | 0.00 | 93 | 1008.2 |
| 20260507051226 | 70 | 191 | 1.7 | 4.3 | 0.00 | 0.04 | 0.00 | 93 | 1008.1 |
| 20260507050952 | 70 | 209 | 1.7 | 1.7 | 0.00 | 0.04 | 0.00 | 93 | 1008.1 |
| 20260507050226 | 70 | 185 | 1.7 | 3.5 | 0.00 | 0.04 | 0.00 | 92 | 1008.2 |
| 20260507045726 | 70 | 319 | 1.7 | 3.5 | 0.00 | 0.04 | 0.00 | 91 | 1008.3 |
| 20260507045226 | 70 | 245 | 1.7 | 2.6 | 0.00 | 0.04 | 0.00 | 91 | 1008.3 |
| 20260507044726 | 70 | 108 | 1.7 | 2.6 | 0.00 | 0.04 | 0.00 | 90 | 1008.3 |
| 20260507044449 | 70 | 197 | 1.7 | 3.5 | 0.00 | 0.04 | 0.00 | 90 | 1008.3 |
| 20260507043727 | 70 | 209 | 1.7 | 3.5 | 0.00 | 0.04 | 0.00 | 89 | 1008.1 |
| 20260507043227 | 70 | 194 | 1.7 | 1.7 | 0.00 | 0.04 | 0.00 | 89 | 1008.0 |
| 20260507042945 | 70 | 294 | 1.7 | 2.6 | 0.00 | 0.04 | 0.00 | 89 | 1007.9 |
| 20260507042225 | 70 | 239 | 1.7 | 2.6 | 0.00 | 0.04 | 0.00 | 89 | 1007.8 |
| 20260507041726 | 70 | 193 | 1.7 | 1.7 | 0.00 | 0.04 | 0.00 | 89 | 1007.8 |
| 20260507041212 | 70 | 197 | 1.7 | 1.7 | 0.00 | 0.04 | 0.00 | 89 | 1007.9 |
| 20260507040714 | 70 | 188 | 1.7 | 1.7 | 0.00 | 0.04 | 0.00 | 88 | 1007.9 |
| 20260507040213 | 70 | 193 | 1.7 | 1.7 | 0.00 | 0.04 | 0.00 | 88 | 1008.0 |
| 20260507035713 | 70 | 257 | 1.7 | 2.6 | 0.00 | 0.04 | 0.04 | 88 | 1008.0 |
| 20260507035213 | 70 | 200 | 1.7 | 2.6 | 0.00 | 0.04 | 0.04 | 88 | 1007.9 |
| 20260507034714 | 70 | 175 | 1.7 | 2.6 | 0.00 | 0.04 | 0.04 | 89 | 1007.9 |
| 20260507034212 | 70 | 182 | 1.7 | 2.6 | 0.00 | 0.04 | 0.04 | 88 | 1008.0 |
| 20260507033712 | 70 | 189 | 1.7 | 2.6 | 0.00 | 0.04 | 0.04 | 88 | 1008.0 |
| 20260507033212 | 70 | 266 | 1.7 | 2.6 | 0.00 | 0.04 | 0.04 | 88 | 1007.9 |
| 20260507032658 | 70 | 239 | 1.7 | 2.6 | 0.00 | 0.04 | 0.04 | 88 | 1007.9 |
| 20260507032404 | 70 | 215 | 1.7 | 1.7 | 0.00 | 0.04 | 0.04 | 89 | 1007.8 |
| 20260507031643 | 70 | 196 | 1.7 | 2.6 | 0.00 | 0.04 | 0.04 | 88 | 1007.7 |
| 20260507031144 | 70 | 176 | 1.7 | 2.6 | 0.00 | 0.04 | 0.04 | 88 | 1007.7 |
| 20260507030643 | 70 | 189 | 1.7 | 1.7 | 0.00 | 0.04 | 0.04 | 88 | 1007.8 |
| 20260507030144 | 70 | 199 | 1.7 | 2.6 | 0.00 | 0.04 | 0.04 | 88 | 1007.7 |
| 20260507025912 | 70 | 321 | 1.7 | 2.6 | 0.00 | 0.04 | 0.04 | 88 | 1007.6 |
| 20260507025144 | 69 | 331 | 1.7 | 2.6 | 0.00 | 0.04 | 0.04 | 88 | 1007.7 |
| 20260507024644 | 69 | 194 | 1.7 | 2.6 | 0.00 | 0.04 | 0.04 | 88 | 1007.8 |
| 20260507024144 | 69 | 187 | 1.7 | 2.6 | 0.00 | 0.04 | 0.04 | 89 | 1007.9 |
| 20260507023644 | 69 | 210 | 0.9 | 2.6 | 0.00 | 0.04 | 0.04 | 89 | 1008.0 |
| 20260507023143 | 69 | 187 | 0.9 | 2.6 | 0.00 | 0.04 | 0.04 | 89 | 1008.0 |
| 20260507022645 | 69 | 198 | 0.9 | 3.5 | 0.00 | 0.04 | 0.04 | 89 | 1008.1 |
| 20260507022131 | 69 | 294 | 0.9 | 3.5 | 0.00 | 0.04 | 0.04 | 89 | 1008.1 |
| 20260507021855 | 69 | 170 | 0.9 | 1.7 | 0.00 | 0.04 | 0.04 | 88 | 1008.1 |
| 20260507021131 | 69 | 181 | 1.7 | 1.7 | 0.00 | 0.04 | 0.04 | 88 | 1008.2 |
| 20260507020852 | 69 | 328 | 1.7 | 1.7 | 0.00 | 0.04 | 0.04 | 88 | 1008.1 |
| 20260507020132 | 69 | 177 | 1.7 | 1.7 | 0.00 | 0.04 | 0.04 | 88 | 1008.1 |
| 20260507015631 | 70 | 192 | 1.7 | 1.7 | 0.00 | 0.04 | 0.04 | 87 | 1008.0 |
| 20260507015354 | 70 | 194 | 1.7 | 1.7 | 0.00 | 0.04 | 0.04 | 87 | 1008.0 |
| 20260507014631 | 70 | 182 | 1.7 | 1.7 | 0.00 | 0.04 | 0.04 | 86 | 1008.0 |
| 20260507014131 | 70 | 348 | 1.7 | 1.7 | 0.00 | 0.04 | 0.04 | 86 | 1008.1 |
| 20260507013629 | 70 | 183 | 1.7 | 1.7 | 0.00 | 0.04 | 0.04 | 86 | 1008.1 |
| 20260507013129 | 70 | 184 | 1.7 | 1.7 | 0.00 | 0.04 | 0.04 | 86 | 1008.1 |
| 20260507012617 | 70 | 187 | 1.7 | 1.7 | 0.00 | 0.04 | 0.04 | 86 | 1008.1 |
| 20260507012114 | 70 | 182 | 1.7 | 1.7 | 0.00 | 0.04 | 0.04 | 85 | 1008.0 |
| 20260507011838 | 70 | 345 | 1.7 | 1.7 | 0.00 | 0.04 | 0.04 | 85 | 1008.0 |
| 20260507011114 | 71 | 183 | 1.7 | 1.7 | 0.00 | 0.04 | 0.04 | 85 | 1007.9 |
| 20260507010615 | 71 | 186 | 1.7 | 1.7 | 0.00 | 0.04 | 0.04 | 85 | 1007.9 |
| 20260507010333 | 71 | 192 | 1.7 | 2.6 | 0.00 | 0.04 | 0.04 | 85 | 1007.9 |
| 20260507005839 | 71 | 174 | 1.7 | 2.6 | 0.00 | 0.04 | 0.04 | 84 | 1008.0 |
| 20260507005115 | 71 | 93 | 1.7 | 2.6 | 0.00 | 0.04 | 0.04 | 83 | 1008.0 |
| 20260507004616 | 71 | 192 | 1.7 | 2.6 | 0.00 | 0.04 | 0.04 | 83 | 1008.0 |
| 20260507004116 | 72 | 186 | 1.7 | 1.7 | 0.00 | 0.04 | 0.04 | 83 | 1008.0 |
| 20260507003615 | 72 | 182 | 1.7 | 1.7 | 0.00 | 0.04 | 0.04 | 82 | 1008.0 |
| 20260507003340 | 72 | 168 | 1.7 | 2.6 | 0.00 | 0.04 | 0.04 | 82 | 1008.1 |
| 20260507002602 | 72 | 181 | 1.7 | 2.6 | 0.00 | 0.04 | 0.04 | 81 | 1008.1 |
| 20260507002544 | 72 | 199 | 1.7 | 1.7 | 0.00 | 0.04 | 0.04 | 81 | 1008.1 |
| 20260507001602 | 73 | 194 | 1.7 | 1.7 | 0.00 | 0.04 | 0.04 | 80 | 1008.0 |
| 20260507001102 | 73 | 192 | 1.7 | 1.7 | 0.00 | 0.04 | 0.04 | 80 | 1007.8 |
| 20260507000602 | 73 | 194 | 1.7 | 3.5 | 0.00 | 0.04 | 0.04 | 80 | 1007.7 |
| 20260506235602 | 73 | 219 | 1.7 | 4.3 | 0.00 | 0.04 | 0.04 | 79 | 1007.6 |
| 20260506235101 | 73 | 196 | 1.7 | 4.3 | 0.00 | 0.04 | 0.04 | 78 | 1007.7 |
| 20260506234601 | 73 | 228 | 1.7 | 4.3 | 0.00 | 0.04 | 0.04 | 78 | 1007.7 |
| 20260506234533 | 74 | 191 | 1.7 | 7.0 | 0.00 | 0.04 | 0.04 | 77 | 1007.7 |
| 20260506233550 | 74 | 189 | 2.6 | 7.0 | 0.00 | 0.04 | 0.04 | 76 | 1007.6 |
| 20260506233049 | 74 | 193 | 1.7 | 5.2 | 0.00 | 0.04 | 0.04 | 76 | 1007.6 |
| 20260506232548 | 74 | 193 | 1.7 | 2.6 | 0.00 | 0.04 | 0.04 | 76 | 1007.6 |
| 20260506232034 | 74 | 189 | 1.7 | 2.6 | 0.00 | 0.04 | 0.04 | 76 | 1007.6 |
| 20260506231534 | 74 | 186 | 2.6 | 3.5 | 0.00 | 0.04 | 0.04 | 75 | 1007.5 |
| 20260506231034 | 74 | 178 | 2.6 | 3.5 | 0.00 | 0.04 | 0.04 | 75 | 1007.3 |
| 20260506230534 | 74 | 175 | 2.6 | 3.5 | 0.00 | 0.04 | 0.04 | 75 | 1007.3 |
| 20260506230034 | 74 | 309 | 2.6 | 3.5 | 0.00 | 0.04 | 0.04 | 74 | 1007.4 |
| 20260506225534 | 74 | 185 | 2.6 | 3.5 | 0.00 | 0.04 | 0.04 | 75 | 1007.3 |
| 20260506225034 | 74 | 172 | 2.6 | 3.5 | 0.00 | 0.04 | 0.04 | 75 | 1007.3 |
| 20260506224535 | 74 | 310 | 2.6 | 3.5 | 0.00 | 0.04 | 0.04 | 75 | 1007.3 |
| 20260506224032 | 74 | 174 | 2.6 | 3.5 | 0.00 | 0.04 | 0.04 | 74 | 1007.2 |
| 20260506223532 | 74 | 169 | 2.6 | 4.3 | 0.00 | 0.04 | 0.04 | 74 | 1007.3 |
| 20260506223019 | 74 | 168 | 2.6 | 4.3 | 0.00 | 0.04 | 0.04 | 74 | 1007.3 |
| 20260506222504 | 74 | 169 | 2.6 | 3.5 | 0.00 | 0.04 | 0.04 | 75 | 1007.3 |
| 20260506222004 | 75 | 191 | 2.6 | 3.5 | 0.00 | 0.04 | 0.04 | 75 | 1007.4 |
| 20260506221504 | 75 | 176 | 2.6 | 3.5 | 0.00 | 0.04 | 0.04 | 75 | 1007.4 |
| 20260506221225 | 75 | 307 | 2.6 | 3.5 | 0.00 | 0.04 | 0.04 | 74 | 1007.6 |
| 20260506220504 | 75 | 184 | 3.5 | 4.3 | 0.00 | 0.04 | 0.04 | 74 | 1007.6 |
| 20260506215952 | 75 | 178 | 2.6 | 4.3 | 0.00 | 0.04 | 0.04 | 74 | 1007.8 |
| 20260506215707 | 75 | 284 | 2.6 | 3.5 | 0.00 | 0.04 | 0.04 | 74 | 1007.7 |
| 20260506214949 | 74 | 175 | 2.6 | 3.5 | 0.00 | 0.04 | 0.04 | 74 | 1007.6 |
| 20260506214450 | 74 | 179 | 2.6 | 3.5 | 0.00 | 0.04 | 0.04 | 74 | 1007.5 |
| 20260506213949 | 74 | 184 | 2.6 | 3.5 | 0.00 | 0.04 | 0.04 | 74 | 1007.5 |
| 20260506213449 | 74 | 182 | 2.6 | 3.5 | 0.00 | 0.04 | 0.04 | 74 | 1007.3 |
| 20260506212948 | 74 | 170 | 2.6 | 3.5 | 0.00 | 0.04 | 0.04 | 74 | 1007.3 |
| 20260506212448 | 74 | 180 | 2.6 | 3.5 | 0.00 | 0.04 | 0.04 | 74 | 1007.3 |
| 20260506211933 | 74 | 314 | 2.6 | 3.5 | 0.00 | 0.04 | 0.04 | 74 | 1007.5 |
| 20260506211434 | 74 | 174 | 2.6 | 3.5 | 0.00 | 0.04 | 0.04 | 73 | 1007.5 |
| 20260506210934 | 74 | 168 | 3.5 | 3.5 | 0.00 | 0.04 | 0.04 | 73 | 1007.6 |
| 20260506210433 | 74 | 181 | 3.5 | 3.5 | 0.00 | 0.04 | 0.04 | 73 | 1007.4 |
| 20260506205934 | 75 | 175 | 3.5 | 3.5 | 0.00 | 0.04 | 0.04 | 73 | 1007.6 |
| 20260506205434 | 75 | 179 | 3.5 | 4.3 | 0.00 | 0.04 | 0.04 | 73 | 1007.4 |
| 20260506204934 | 75 | 180 | 3.5 | 4.3 | 0.00 | 0.04 | 0.04 | 72 | 1007.4 |
| 20260506204434 | 75 | 168 | 3.5 | 4.3 | 0.00 | 0.04 | 0.04 | 72 | 1007.0 |
| 20260506204158 | 75 | 171 | 2.6 | 4.3 | 0.00 | 0.04 | 0.04 | 72 | 1007.1 |
| 20260506203651 | 75 | 177 | 2.6 | 3.5 | 0.00 | 0.04 | 0.04 | 73 | 1007.1 |
| 20260506202933 | 75 | 341 | 3.5 | 4.3 | 0.00 | 0.04 | 0.04 | 72 | 1007.1 |
| 20260506202432 | 75 | 180 | 3.5 | 4.3 | 0.00 | 0.04 | 0.04 | 72 | 1007.1 |
| 20260506201920 | 75 | 309 | 3.5 | 4.3 | 0.00 | 0.04 | 0.04 | 72 | 1007.1 |
| 20260506201641 | 75 | 172 | 3.5 | 4.3 | 0.00 | 0.04 | 0.04 | 71 | 1007.1 |
| 20260506200920 | 75 | 212 | 3.5 | 4.3 | 0.00 | 0.04 | 0.04 | 71 | 1007.2 |
| 20260506200419 | 75 | 178 | 3.5 | 4.3 | 0.00 | 0.04 | 0.04 | 70 | 1007.2 |
| 20260506200148 | 74 | 175 | 2.6 | 3.5 | 0.00 | 0.04 | 0.04 | 71 | 1007.2 |
| 20260506195420 | 74 | 181 | 2.6 | 3.5 | 0.00 | 0.04 | 0.04 | 71 | 1007.3 |
| 20260506195138 | 74 | 167 | 2.6 | 3.5 | 0.00 | 0.04 | 0.04 | 72 | 1007.4 |
| 20260506194420 | 74 | 166 | 2.6 | 3.5 | 0.00 | 0.04 | 0.04 | 73 | 1007.5 |
| 20260506193920 | 74 | 181 | 2.6 | 3.5 | 0.00 | 0.04 | 0.04 | 72 | 1007.6 |
| 20260506193421 | 74 | 170 | 2.6 | 3.5 | 0.00 | 0.04 | 0.04 | 72 | 1007.8 |
| 20260506193403 | 74 | 191 | 2.6 | 3.5 | 0.00 | 0.04 | 0.04 | 72 | 1007.9 |
| 20260506192627 | 74 | 163 | 2.6 | 3.5 | 0.00 | 0.04 | 0.04 | 72 | 1008.1 |
| 20260506191907 | 74 | 174 | 2.6 | 4.3 | 0.00 | 0.04 | 0.04 | 72 | 1008.2 |
| 20260506191355 | 74 | 300 | 2.6 | 4.3 | 0.00 | 0.04 | 0.04 | 72 | 1008.4 |
| 20260506191111 | 74 | 306 | 2.6 | 4.3 | 0.00 | 0.04 | 0.04 | 72 | 1008.6 |
| 20260506190352 | 74 | 194 | 2.6 | 4.3 | 0.00 | 0.04 | 0.04 | 72 | 1008.7 |
| 20260506190340 | 74 | 182 | 2.6 | 3.5 | 0.00 | 0.04 | 0.04 | 73 | 1008.7 |
| 20260506185351 | 74 | 181 | 2.6 | 3.5 | 0.00 | 0.04 | 0.04 | 72 | 1008.8 |
| 20260506185342 | 73 | 284 | 1.7 | 2.6 | 0.00 | 0.04 | 0.04 | 73 | 1008.8 |
| 20260506184610 | 73 | 188 | 1.7 | 2.6 | 0.00 | 0.04 | 0.04 | 73 | 1008.9 |
| 20260506183851 | 73 | 203 | 1.7 | 1.7 | 0.00 | 0.04 | 0.04 | 73 | 1009.0 |
| 20260506183353 | 73 | 202 | 1.7 | 2.6 | 0.00 | 0.04 | 0.04 | 73 | 1009.0 |
| 20260506182851 | 73 | 199 | 1.7 | 3.5 | 0.00 | 0.04 | 0.04 | 73 | 1009.2 |
| 20260506182337 | 73 | 233 | 1.7 | 5.2 | 0.00 | 0.04 | 0.04 | 73 | 1009.2 |
| 20260506181836 | 73 | 187 | 2.6 | 5.2 | 0.00 | 0.04 | 0.04 | 72 | 1009.3 |
| 20260506181336 | 73 | 240 | 2.6 | 5.2 | 0.00 | 0.04 | 0.04 | 72 | 1009.2 |
| 20260506180824 | 73 | 217 | 2.6 | 5.2 | 0.00 | 0.04 | 0.04 | 73 | 1009.2 |
| 20260506180325 | 73 | 224 | 2.6 | 7.0 | 0.00 | 0.04 | 0.04 | 72 | 1009.3 |
| 20260506175825 | 73 | 174 | 3.5 | 7.8 | 0.00 | 0.04 | 0.04 | 73 | 1009.2 |
| 20260506175325 | 72 | 209 | 2.6 | 8.7 | 0.00 | 0.04 | 0.04 | 73 | 1009.2 |
| 20260506174825 | 72 | 186 | 2.6 | 8.7 | 0.00 | 0.04 | 0.04 | 74 | 1009.2 |
| 20260506174322 | 72 | 210 | 1.7 | 4.3 | 0.00 | 0.04 | 0.04 | 76 | 1009.2 |
| 20260506173822 | 72 | 174 | 1.7 | 4.3 | 0.00 | 0.04 | 0.04 | 76 | 1009.1 |
| 20260506173322 | 71 | 186 | 1.7 | 3.5 | 0.00 | 0.04 | 0.04 | 76 | 1009.2 |
| 20260506172822 | 71 | 190 | 1.7 | 3.5 | 0.00 | 0.04 | 0.04 | 78 | 1009.2 |
| 20260506172322 | 71 | 185 | 1.7 | 2.6 | 0.00 | 0.04 | 0.04 | 78 | 1009.3 |
| 20260506171808 | 70 | 108 | 1.7 | 2.6 | 0.00 | 0.04 | 0.04 | 78 | 1009.3 |
| 20260506171528 | 70 | 189 | 1.7 | 2.6 | 0.00 | 0.04 | 0.04 | 80 | 1009.1 |
| 20260506170809 | 70 | 320 | 1.7 | 3.5 | 0.00 | 0.04 | 0.04 | 79 | 1009.4 |
| 20260506170309 | 69 | 191 | 1.7 | 3.5 | 0.01 | 0.04 | 0.04 | 81 | 1009.7 |
| 20260506170247 | 69 | 191 | 1.7 | 3.5 | 0.02 | 0.04 | 0.04 | 82 | 1009.9 |
| 20260506165309 | 68 | 162 | 1.7 | 3.5 | 0.02 | 0.04 | 0.04 | 81 | 1010.0 |
| 20260506165032 | 68 | 161 | 1.7 | 3.5 | 0.02 | 0.04 | 0.04 | 83 | 1010.1 |
| 20260506164309 | 68 | 163 | 1.7 | 2.6 | 0.02 | 0.04 | 0.04 | 84 | 1010.1 |
| 20260506163811 | 67 | 312 | 1.7 | 4.3 | 0.02 | 0.04 | 0.04 | 85 | 1010.1 |
| 20260506163310 | 67 | 185 | 1.7 | 4.3 | 0.02 | 0.04 | 0.04 | 85 | 1010.1 |
| 20260506163035 | 67 | 156 | 1.7 | 2.6 | 0.02 | 0.04 | 0.04 | 88 | 1010.3 |
| 20260506162310 | 67 | 160 | 1.7 | 1.7 | 0.03 | 0.04 | 0.04 | 89 | 1010.4 |
| 20260506161754 | 67 | 329 | 0.9 | 2.6 | 0.03 | 0.04 | 0.04 | 89 | 1010.4 |
| 20260506161253 | 67 | 182 | 0.9 | 2.6 | 0.03 | 0.04 | 0.04 | 90 | 1010.4 |
| 20260506160756 | 67 | 184 | 1.7 | 3.5 | 0.03 | 0.04 | 0.04 | 88 | 1010.5 |
| 20260506160241 | 68 | 180 | 1.7 | 3.5 | 0.03 | 0.04 | 0.04 | 85 | 1010.6 |
| 20260506160000 | 68 | 191 | 1.7 | 3.5 | 0.01 | 0.02 | 0.02 | 81 | 1010.6 |
| 20260506155241 | 68 | 205 | 1.7 | 3.5 | 0.01 | 0.02 | 0.02 | 81 | 1010.5 |
| 20260506154741 | 67 | 179 | 1.7 | 2.6 | 0.02 | 0.02 | 0.02 | 83 | 1010.7 |
| 20260506154242 | 67 | 157 | 1.7 | 2.6 | 0.02 | 0.02 | 0.02 | 84 | 1010.8 |
| 20260506154004 | 67 | 320 | 1.7 | 2.6 | 0.02 | 0.02 | 0.02 | 85 | 1010.8 |
| 20260506153238 | 67 | 0 | 0.9 | 2.6 | 0.02 | 0.02 | 0.02 | 86 | 1010.9 |
| 20260506152738 | 67 | 307 | 1.7 | 2.6 | 0.02 | 0.02 | 0.02 | 86 | 1010.9 |
| 20260506152227 | 67 | 201 | 1.7 | 2.6 | 0.01 | 0.01 | 0.01 | 86 | 1010.8 |
| 20260506151727 | 67 | 294 | 1.7 | 2.6 | 0.01 | 0.01 | 0.01 | 86 | 1010.9 |
| 20260506151227 | 67 | 160 | 1.7 | 2.6 | 0.01 | 0.01 | 0.01 | 87 | 1011.0 |
| 20260506150713 | 67 | 155 | 1.7 | 1.7 | 0.01 | 0.01 | 0.01 | 88 | 1011.0 |
| 20260506150212 | 67 | 315 | 0.9 | 3.5 | 0.01 | 0.01 | 0.01 | 88 | 1011.1 |
| 20260506145936 | 67 | 185 | 2.6 | 4.3 | 0.01 | 0.01 | 0.01 | 87 | 1011.2 |
| 20260506145200 | 68 | 177 | 2.6 | 5.2 | 0.00 | 0.00 | 0.00 | 84 | 1011.3 |
| 20260506144921 | 68 | 166 | 2.6 | 5.2 | 0.00 | 0.00 | 0.00 | 82 | 1011.3 |
| 20260506144201 | 68 | 193 | 2.6 | 5.2 | 0.00 | 0.00 | 0.00 | 81 | 1011.2 |
| 20260506143658 | 68 | 340 | 2.6 | 5.2 | 0.00 | 0.00 | 0.00 | 81 | 1011.2 |
| 20260506143158 | 68 | 248 | 2.6 | 5.2 | 0.00 | 0.00 | 0.00 | 81 | 1010.9 |
| 20260506142911 | 68 | 166 | 1.7 | 3.5 | 0.00 | 0.00 | 0.00 | 81 | 1010.8 |
| 20260506142156 | 67 | 197 | 1.7 | 3.5 | 0.00 | 0.00 | 0.00 | 81 | 1010.8 |
| 20260506141641 | 67 | 155 | 1.7 | 2.6 | 0.00 | 0.00 | 0.00 | 82 | 1010.8 |
| 20260506141141 | 67 | 166 | 1.7 | 2.6 | 0.00 | 0.00 | 0.00 | 83 | 1010.8 |